Simultaneous Nadir Overpasses (SNOs) Predictions

Prediction of SNOs between GOES-15 and METOP-A Satellite Orbit:

Table of predicted SNOs for the next 14.0 days since TLE Epoch: 2/5/2016
Index Date Time (GOES-15) GOES-15 Lat,Lon METOP-A Lat,Lon Distance(km) Time Diff (sec)
1 02/06/2016 06:26:09 -0.03,-135.32 0.11,-134.66 75.11 80
2 02/07/2016 18:45:01 0.04,-135.31 0.92,-139.21 445.14 80
3 02/08/2016 18:27:01 0.04,-135.31 -0.18,-134.21 124.80 80
4 02/10/2016 06:46:02 -0.04,-135.34 -0.79,-138.82 395.63 80
5 02/11/2016 06:22:43 -0.04,-135.34 0.32,-133.82 173.67 80
6 02/12/2016 18:41:34 0.04,-135.32 0.71,-138.38 347.97 80
7 02/13/2016 18:23:35 0.04,-135.32 -0.41,-133.38 221.19 80
8 02/15/2016 06:42:35 -0.04,-135.33 -0.63,-137.97 300.26 80
9 02/16/2016 06:19:16 -0.04,-135.33 0.48,-132.97 268.24 80
10 02/17/2016 18:38:07 0.04,-135.29 0.53,-137.53 254.74 80
11 02/18/2016 18:20:08 0.04,-135.29 -0.58,-132.54 313.80 80




NCC Satellite Simultaneous Nadir Overpasses (SNOs) Prediction Service
